North Platte, NE

12:33 PM CDT on May 21, 2018 (GMT -0500)
North Platte Regional-Bird

Weather History for KLBF - April, 2012

Change the Weather History Date:

Monday, April 9, 2012

  Actual Average Record
Temperature  
Mean Temperature 46 °F 45 °F  
Max Temperature 65 °F 60 °F 92 °F (1930)
Min Temperature 26 °F 31 °F 14 °F (1982)
Degree Days  
Heating Degree Days 19 20  
Month to date heating degree days 120 189  
Since 1 July heating degree days 5304 6054  
Cooling Degree Days 0 0  
Month to date cooling degree days 1 0  
Year to date cooling degree days 8 0  
Moisture  
Dew Point 25 °F    
Average Humidity 55    
Maximum Humidity 85    
Minimum Humidity 25    
Precipitation  
Precipitation 0.00 in 0.07 in 0.88 in (1943)
Month to date precipitation 0.14 0.51  
Year to date precipitation 2.31 2.40  
Snow  
Snow 0.00 in 0.10 in 3.40 in (2009)
Month to date snowfall 0.0 1.3  
Since 1 July snowfall 15.6 26.6  
Snow Depth 0.00 in    
Sea Level Pressure  
Sea Level Pressure 30.23 in    
Wind  
Wind Speed 6 mph (ENE)    
Max Wind Speed 16 mph    
Max Gust Speed 25 mph    
Visibility 10 miles    
Events      
T = Trace of Precipitation, MM = Missing Value Source: NWS Daily Summary

Daily Weather History Graph

Daily Weather History Graph

Search for Another Location

Airport or City:

Astronomy

Apr. 09, 2012 Rise Set
Actual Time 7:12 AM CDT 8:16 PM CDT
Civil Twilight 6:43 AM CDT 8:45 PM CDT
Nautical Twilight 6:10 AM CDT 9:18 PM CDT
Astronomical Twilight 5:35 AM CDT 9:54 PM CDT
Moon No Moon Rise 8:59 AM CDT (4/9)
Length of Visible Light 14h 01m
Length of Day
13h 04m
Waning Gibbous, 88% of the Moon is Illuminated
Apr 9
Waning Gibbous
Apr 13
Last Quarter
Apr 21
New
Apr 29
First Quarter
May 5
Full

Hourly Weather History & Observations

Time (CDT) Temp. Windchill Dew Point Humidity Pressure Visibility Wind Dir Wind Speed Gust Speed Precip Events Conditions
12:53 AM 34.0 °F 29.8 °F 25.0 °F 70% 30.23 in 10.0 mi NE 4.6 mph - N/A   Clear
1:53 AM 35.1 °F - 24.1 °F 64% 30.23 in 10.0 mi Calm Calm - N/A   Clear
2:53 AM 30.9 °F - 24.1 °F 76% 30.23 in 10.0 mi Calm Calm - N/A   Clear
3:53 AM 30.0 °F - 24.1 °F 79% 30.23 in 10.0 mi Calm Calm - N/A   Clear
4:53 AM 28.9 °F - 25.0 °F 85% 30.24 in 10.0 mi Calm Calm - N/A   Clear
5:53 AM 28.0 °F - 21.9 °F 78% 30.23 in 10.0 mi Calm Calm - N/A   Clear
6:53 AM 28.0 °F - 21.9 °F 78% 30.26 in 10.0 mi Calm Calm - N/A   Clear
7:53 AM 30.9 °F 27.5 °F 24.1 °F 76% 30.29 in 10.0 mi WNW 3.5 mph - N/A   Clear
8:53 AM 42.1 °F 37.7 °F 26.1 °F 53% 30.29 in 10.0 mi NE 6.9 mph - N/A   Clear
9:53 AM 52.0 °F - 24.1 °F 34% 30.26 in 10.0 mi ENE 15.0 mph - N/A   Clear
10:53 AM 57.0 °F - 23.0 °F 27% 30.27 in 10.0 mi ENE 11.5 mph - N/A   Clear
11:53 AM 57.9 °F - 23.0 °F 26% 30.27 in 10.0 mi East 10.4 mph 19.6 mph N/A   Clear
12:53 PM 60.1 °F - 24.1 °F 25% 30.25 in 10.0 mi ENE 10.4 mph 18.4 mph N/A   Clear
1:53 PM 61.0 °F - 26.1 °F 26% 30.23 in 10.0 mi East 9.2 mph - N/A   Overcast
2:53 PM 62.1 °F - 26.1 °F 25% 30.22 in 10.0 mi ENE 10.4 mph 25.3 mph N/A   Overcast
3:53 PM 62.1 °F - 27.0 °F 26% 30.22 in 10.0 mi East 9.2 mph - N/A   Overcast
4:53 PM 61.0 °F - 28.9 °F 30% 30.20 in 10.0 mi ENE 10.4 mph - N/A   Mostly Cloudy
5:53 PM 62.1 °F - 28.0 °F 28% 30.19 in 10.0 mi ENE 8.1 mph - N/A   Clear
6:53 PM 60.1 °F - 28.0 °F 30% 30.19 in 10.0 mi NE 11.5 mph - N/A   Clear
7:53 PM 54.0 °F - 27.0 °F 35% 30.20 in 10.0 mi NE 9.2 mph - N/A   Clear
8:53 PM 44.1 °F 39.0 °F 27.0 °F 51% 30.20 in 10.0 mi NE 9.2 mph - N/A   Clear
9:53 PM 42.1 °F 37.7 °F 26.1 °F 53% 30.21 in 10.0 mi NE 6.9 mph - N/A   Clear
10:53 PM 42.1 °F 40.2 °F 25.0 °F 51% 30.22 in 10.0 mi East 3.5 mph - N/A   Clear
11:53 PM 39.9 °F 37.8 °F 25.0 °F 55% 30.23 in 10.0 mi SE 3.5 mph - N/A   Clear